Buckland, AK

2:53 PM AKST on December 03, 2016 (GMT -0900)
Buckland

Weather History for PABL - February, 2013

Change the Weather History Date:

Monday, February 25, 2013

  Actual Average (PASK) Record (PASK)
Temperature  
Mean Temperature -20 °F -  
Max Temperature -16 °F 6 °F 33 °F (1997)
Min Temperature -23 °F -2 °F -38 °F (2012)
Degree Days  
Heating Degree Days 84    
Moisture  
Dew Point -27 °F    
Average Humidity 66    
Maximum Humidity 92    
Minimum Humidity 58    
Precipitation  
Precipitation 0.00 in - - ()
Sea Level Pressure  
Sea Level Pressure 29.95 in    
Wind  
Wind Speed 5 mph (NW)    
Max Wind Speed 16 mph    
Max Gust Speed 20 mph    
Visibility 7 miles    
Events      
Averages and records for this station are not official NWS values.
T = Trace of Precipitation, MM = Missing Value Source: NWS Daily Summary

Daily Weather History Graph

Daily Weather History Graph

Search for Another Location

Airport or City:

Trip Planner

Search our weather history database for the weather conditions in past years. The results will help you decide how hot, cold, wet, or windy it might be!

Date:

Astronomy

Feb. 25, 2013 Rise Set
Actual Time 9:10 AM AKST 6:46 PM AKST
Civil Twilight 8:18 AM AKST 7:38 PM AKST
Nautical Twilight 7:19 AM AKST 8:37 PM AKST
Astronomical Twilight 6:18 AM AKST 9:38 PM AKST
Moon 7:42 PM AKST (2/25) 8:27 AM AKST (2/25)
Length of Visible Light 11h 20m
Length of Day
9h 35m
Full, 100% of the Moon is Illuminated
Feb 25
Full
Mar 4
Last Quarter
Mar 11
New
Mar 19
First Quarter
Mar 27
Full

Hourly Weather History & Observations

Time (AKST) Temp. Windchill Dew Point Humidity Pressure Visibility Wind Dir Wind Speed Gust Speed Precip Events Conditions
12:16 AM -20.2 °F - -27.4 °F 69% 29.81 in 10.0 mi Calm Calm - N/A   Unknown
12:36 AM - - - N/A% 29.81 in 10.0 mi Calm Calm - N/A   Unknown
12:56 AM - - - N/A% 29.82 in 10.0 mi Calm Calm - N/A   Unknown
1:16 AM -22.0 °F - - N/A% 29.83 in 10.0 mi Calm Calm - N/A   Unknown
1:36 AM -22.0 °F - - N/A% 29.83 in 10.0 mi Calm Calm - N/A   Unknown
1:56 AM -22.0 °F - - N/A% 29.83 in 3.0 mi Calm Calm - N/A   Unknown
2:16 AM - - - N/A% 29.82 in 4.0 mi Calm Calm - N/A   Unknown
2:36 AM -20.2 °F - - N/A% 29.83 in 9.0 mi Calm Calm - N/A   Unknown
2:56 AM -20.2 °F - -27.4 °F 69% 29.84 in 5.0 mi Calm Calm - N/A   Unknown
3:16 AM -20.2 °F - -25.6 °F 76% 29.84 in 4.0 mi Calm Calm - N/A   Unknown
3:36 AM -18.4 °F - -29.2 °F 58% 29.84 in 3.0 mi Calm Calm - N/A   Unknown
3:56 AM -18.4 °F - -25.6 °F 70% 29.84 in 5.0 mi Calm Calm - N/A   Unknown
4:16 AM -20.2 °F - -27.4 °F 69% 29.84 in 10.0 mi Calm Calm - N/A   Unknown
4:36 AM -20.2 °F - -25.6 °F 76% 29.85 in 10.0 mi Calm Calm - N/A   Unknown
4:56 AM -20.2 °F - - N/A% 29.85 in 10.0 mi Calm Calm - N/A   Unknown
5:16 AM -20.2 °F - -27.4 °F 69% 29.85 in 10.0 mi Calm Calm - N/A   Unknown
5:36 AM -20.2 °F - -27.4 °F 69% 29.85 in 10.0 mi Calm Calm - N/A   Unknown
5:56 AM -22.0 °F - - N/A% 29.85 in 10.0 mi Calm Calm - N/A   Unknown
6:16 AM -20.2 °F - -27.4 °F 69% 29.86 in 5.0 mi Calm Calm - N/A   Unknown
6:36 AM -18.4 °F - -20.2 °F 91% 29.86 in 2.5 mi Calm Calm - N/A   Unknown
6:56 AM -18.4 °F - - N/A% 29.87 in 5.0 mi Calm Calm - N/A   Unknown
7:16 AM -16.6 °F -32.9 °F -18.4 °F 92% 29.87 in 5.0 mi NNW 6.9 mph - N/A   Unknown
7:36 AM -16.6 °F -32.9 °F - N/A% 29.86 in 5.0 mi NNW 6.9 mph - N/A   Unknown
7:56 AM -16.6 °F -34.4 °F - N/A% 29.87 in 4.0 mi NW 8.1 mph - N/A   Unknown
8:16 AM -16.6 °F -35.7 °F - N/A% 29.87 in 4.0 mi NW 9.2 mph - N/A   Unknown
8:36 AM -16.6 °F -32.9 °F -27.4 °F 58% 29.87 in 5.0 mi NNW 6.9 mph - N/A   Unknown
8:56 AM -16.6 °F -35.7 °F -22.0 °F 76% 29.88 in 5.0 mi NW 9.2 mph - N/A   Unknown
9:16 AM -16.6 °F -35.7 °F -27.4 °F 58% 29.88 in 7.0 mi NW 9.2 mph - N/A   Unknown
9:36 AM -16.6 °F -37.9 °F -27.4 °F 58% 29.90 in 8.0 mi WNW 11.5 mph - N/A   Unknown
9:56 AM -18.4 °F -37.9 °F -25.6 °F 70% 29.91 in 8.0 mi NW 9.2 mph - N/A   Unknown
10:16 AM -18.4 °F -37.9 °F -27.4 °F 63% 29.91 in 9.0 mi NW 9.2 mph - N/A   Unknown
10:36 AM - - - N/A% 29.91 in 8.0 mi NW 9.2 mph - N/A   Unknown
10:56 AM -18.4 °F -40.2 °F -29.2 °F 58% 29.91 in 9.0 mi NW 11.5 mph - N/A   Unknown
11:16 AM -18.4 °F -40.2 °F -27.4 °F 63% 29.92 in 9.0 mi NW 11.5 mph - N/A   Unknown
11:36 AM -18.4 °F -40.2 °F -25.6 °F 70% 29.93 in 10.0 mi NW 11.5 mph - N/A   Unknown
11:56 AM -18.4 °F -40.2 °F -25.6 °F 70% 29.94 in 7.0 mi NW 11.5 mph - N/A   Unknown
12:16 PM -18.4 °F -41.2 °F -29.2 °F 58% 29.94 in 4.0 mi NW 12.7 mph - N/A   Unknown
12:36 PM -18.4 °F -40.2 °F -29.2 °F 58% 29.96 in 3.0 mi NW 11.5 mph - N/A   Unknown
12:56 PM -18.4 °F -41.2 °F -27.4 °F 63% 29.96 in 10.0 mi NW 12.7 mph - N/A   Unknown
1:16 PM -18.4 °F -42.1 °F -27.4 °F 63% 29.96 in 5.0 mi NW 13.8 mph - N/A   Unknown
1:36 PM - - - N/A% 29.96 in 9.0 mi NW 15.0 mph - N/A   Unknown
1:56 PM -20.2 °F -45.2 °F - N/A% 29.97 in 10.0 mi NW 15.0 mph - N/A   Unknown
2:16 PM -18.4 °F -42.1 °F -27.4 °F 63% 29.98 in 4.0 mi NW 13.8 mph - N/A   Unknown
2:36 PM -18.4 °F -42.9 °F -25.6 °F 70% 29.98 in 1.2 mi NW 15.0 mph - N/A   Unknown
2:56 PM - - - N/A% 29.98 in 6.0 mi NW 16.1 mph 19.6 mph N/A   Unknown
3:16 PM -18.4 °F -42.9 °F -29.2 °F 58% 30.00 in 5.0 mi NW 15.0 mph - N/A   Unknown
3:36 PM -18.4 °F -42.9 °F -27.4 °F 63% 30.00 in 4.0 mi NW 15.0 mph - N/A   Unknown
3:56 PM -18.4 °F -42.1 °F -27.4 °F 63% 30.01 in 4.0 mi NW 13.8 mph - N/A   Unknown
4:16 PM - - - N/A% 30.01 in 3.0 mi NW 13.8 mph - N/A   Unknown
4:36 PM - - - N/A% 30.01 in 1.8 mi NW 16.1 mph - N/A   Unknown
4:56 PM -18.4 °F -42.9 °F -27.4 °F 63% 30.03 in 4.0 mi NW 15.0 mph - N/A   Unknown
5:16 PM -18.4 °F -43.7 °F -29.2 °F 58% 30.04 in 5.0 mi NW 16.1 mph - N/A   Unknown
5:36 PM -18.4 °F -42.9 °F -27.4 °F 63% 30.04 in 4.0 mi NW 15.0 mph - N/A   Unknown
5:56 PM -18.4 °F -42.9 °F -27.4 °F 63% 30.04 in 3.0 mi NW 15.0 mph - N/A   Unknown
6:16 PM - - - N/A% 30.05 in 4.0 mi NW 13.8 mph - N/A   Unknown
6:36 PM -18.4 °F -42.9 °F -27.4 °F 63% 30.06 in 4.0 mi NW 15.0 mph - N/A   Unknown
6:56 PM -18.4 °F -42.9 °F -27.4 °F 63% 30.07 in 3.0 mi NW 15.0 mph - N/A   Unknown
7:16 PM -18.4 °F -42.9 °F -27.4 °F 63% 30.07 in 3.0 mi NW 15.0 mph - N/A   Unknown
7:36 PM -18.4 °F -42.9 °F -27.4 °F 63% 30.08 in 5.0 mi NW 15.0 mph - N/A   Unknown
7:56 PM -18.4 °F -42.1 °F -27.4 °F 63% 30.08 in 7.0 mi WNW 13.8 mph - N/A   Unknown
8:16 PM -18.4 °F -42.1 °F -27.4 °F 63% 30.08 in 7.0 mi WNW 13.8 mph - N/A   Unknown
8:36 PM - - - N/A% 30.08 in 9.0 mi NW 11.5 mph - N/A   Unknown
8:56 PM -20.2 °F -41.3 °F -29.2 °F 63% 30.09 in 10.0 mi NW 10.4 mph - N/A   Unknown
9:16 PM - - - N/A% 30.08 in 10.0 mi NW 16.1 mph 19.6 mph N/A   Unknown
9:36 PM - - - N/A% 30.08 in 10.0 mi NW 13.8 mph - N/A   Unknown
9:56 PM -20.2 °F -41.3 °F -29.2 °F 63% 30.09 in 10.0 mi NNW 10.4 mph - N/A   Unknown
10:16 PM -20.2 °F -40.1 °F -29.2 °F 63% 30.10 in 10.0 mi NNW 9.2 mph - N/A   Unknown
10:36 PM - - - N/A% 30.09 in 10.0 mi NNW 8.1 mph - N/A   Unknown
10:56 PM - - - N/A% 30.10 in 10.0 mi NNW 8.1 mph - N/A   Unknown
11:16 PM -23.8 °F -41.6 °F - N/A% 30.11 in 10.0 mi NNW 6.9 mph - N/A   Unknown
11:36 PM -23.8 °F -43.2 °F - N/A% 30.12 in 10.0 mi NNW 8.1 mph - N/A   Unknown
11:56 PM -23.8 °F -44.5 °F - N/A% 30.12 in 10.0 mi NW 9.2 mph - N/A   Unknown